KLM220 EHAM-EIDW

Flight info

Callsign KLM220
Flight time 1h 13m
Altitude 36000
Route BERGI L60 PENIL UL28 LELDO M145 BAGSO BAGSO4L
Aircraft B738/M-SDE2E3FGHIRWXY/LB1

Departure

Time 2026-05-04 19:58
Airport Amsterdam Airport Schiphol (EHAM)

Arrival

Time 2026-05-04 21:11
Airport Dublin Airport (EIDW)
Time Latitude Longitude Altitude Speed Heading
2026-05-04 19:25 52.30710 4.77155 -2 ft 0 kts
2026-05-04 19:32 52.30691 4.77152 -2 ft 4 kts 21°
2026-05-04 19:32 52.30672 4.77143 -2 ft 4 kts 319°
2026-05-04 19:32 52.30659 4.77167 -2 ft 4 kts 301°
2026-05-04 19:32 52.30655 4.77176 -2 ft 1 kts 302°
2026-05-04 19:37 52.30656 4.77168 -2 ft 1 kts 280°
2026-05-04 19:37 52.30654 4.77147 -2 ft 4 kts 262°
2026-05-04 19:37 52.30652 4.77120 -2 ft 0 kts 263°
2026-05-04 19:38 52.30649 4.77092 -2 ft 5 kts 256°
2026-05-04 19:38 52.30615 4.77040 -2 ft 9 kts 191°
2026-05-04 19:38 52.30547 4.77098 -2 ft 13 kts 126°
2026-05-04 19:39 52.30574 4.77249 -2 ft 16 kts 57°
2026-05-04 19:39 52.30640 4.77418 -2 ft 19 kts 48°
2026-05-04 19:39 52.30775 4.77462 -2 ft 21 kts
2026-05-04 19:39 52.30930 4.77476 -2 ft 23 kts
2026-05-04 19:40 52.31100 4.77493 -2 ft 25 kts
2026-05-04 19:40 52.31236 4.77504 -2 ft 20 kts
2026-05-04 19:40 52.31357 4.77392 -2 ft 22 kts 311°
2026-05-04 19:40 52.31433 4.77245 -2 ft 16 kts 310°
2026-05-04 19:41 52.31483 4.77089 -2 ft 18 kts 274°
2026-05-04 19:41 52.31477 4.76878 -2 ft 18 kts 268°
2026-05-04 19:41 52.31471 4.76692 -2 ft 13 kts 266°
2026-05-04 19:41 52.31466 4.76546 -2 ft 15 kts 267°
2026-05-04 19:42 52.31460 4.76359 -2 ft 18 kts 266°
2026-05-04 19:42 52.31453 4.76168 -2 ft 11 kts 266°
2026-05-04 19:42 52.31448 4.76046 -2 ft 13 kts 267°
2026-05-04 19:42 52.31443 4.75888 -2 ft 13 kts 266°
2026-05-04 19:43 52.31438 4.75775 -2 ft 6 kts 266°
2026-05-04 19:43 52.31436 4.75706 -2 ft 7 kts 266°
2026-05-04 19:43 52.31432 4.75603 -2 ft 12 kts 267°
2026-05-04 19:43 52.31427 4.75450 -2 ft 15 kts 266°
2026-05-04 19:44 52.31420 4.75293 -2 ft 16 kts 266°
2026-05-04 19:44 52.31414 4.75082 -2 ft 20 kts 267°
2026-05-04 19:44 52.31406 4.74831 -2 ft 22 kts 267°
2026-05-04 19:44 52.31400 4.74651 -2 ft 12 kts 268°
2026-05-04 19:45 52.31395 4.74486 -2 ft 17 kts 266°
2026-05-04 19:45 52.31391 4.74294 -2 ft 12 kts 289°
2026-05-04 19:45 52.31454 4.74286 -2 ft 11 kts
2026-05-04 19:45 52.31543 4.74297 -2 ft 14 kts
2026-05-04 19:46 52.31653 4.74308 -2 ft 17 kts
2026-05-04 19:46 52.31780 4.74320 -2 ft 19 kts
2026-05-04 19:46 52.31889 4.74330 -2 ft 13 kts
2026-05-04 19:46 52.31989 4.74334 -2 ft 13 kts 347°
2026-05-04 19:47 52.32020 4.74300 -2 ft 5 kts 311°
2026-05-04 19:47 52.32030 4.74231 -2 ft 3 kts 274°
2026-05-04 19:47 52.32030 4.74230 -2 ft 0 kts 274°
2026-05-04 19:48 52.32030 4.74227 -2 ft 2 kts 274°
2026-05-04 19:48 52.32032 4.74173 -2 ft 3 kts 274°
2026-05-04 19:48 52.32033 4.74165 -2 ft 0 kts 273°
2026-05-04 19:49 52.32033 4.74164 -2 ft 1 kts 273°
2026-05-04 19:49 52.32035 4.74100 -2 ft 12 kts 274°
2026-05-04 19:50 52.32042 4.73899 -3 ft 22 kts 273°
2026-05-04 19:50 52.32051 4.73640 -2 ft 24 kts 273°
2026-05-04 19:50 52.32079 4.73379 -2 ft 23 kts 302°
2026-05-04 19:50 52.32197 4.73204 -2 ft 23 kts 319°
2026-05-04 19:51 52.32308 4.73048 -2 ft 18 kts 320°
2026-05-04 19:51 52.32404 4.72913 -2 ft 18 kts 319°
2026-05-04 19:51 52.32493 4.72787 -2 ft 18 kts 319°
2026-05-04 19:51 52.32590 4.72651 -2 ft 17 kts 319°
2026-05-04 19:52 52.32674 4.72529 -2 ft 17 kts 316°
2026-05-04 19:52 52.32757 4.72377 -2 ft 19 kts 311°
2026-05-04 19:52 52.32847 4.72209 -2 ft 20 kts 311°
2026-05-04 19:52 52.32940 4.72038 -2 ft 20 kts 311°
2026-05-04 19:53 52.33030 4.71871 -2 ft 20 kts 311°
2026-05-04 19:53 52.33122 4.71701 -2 ft 17 kts 309°
2026-05-04 19:53 52.33137 4.71516 -2 ft 18 kts 239°
2026-05-04 19:53 52.33058 4.71393 -2 ft 17 kts 221°
2026-05-04 19:54 52.32972 4.71270 -2 ft 16 kts 221°
2026-05-04 19:54 52.32898 4.71163 -2 ft 14 kts 221°
2026-05-04 19:54 52.32863 4.71077 -2 ft 0 kts 258°
2026-05-04 19:54 52.32863 4.71075 -2 ft 0 kts 261°
2026-05-04 19:55 52.32863 4.71073 -2 ft 1 kts 261°
2026-05-04 19:55 52.32861 4.71033 -3 ft 7 kts 268°
2026-05-04 19:56 52.32876 4.70920 -3 ft 13 kts 307°
2026-05-04 19:56 52.32928 4.70899 -4 ft 6 kts
2026-05-04 19:56 52.32930 4.70899 -4 ft 0 kts
2026-05-04 19:57 52.32950 4.70901 -4 ft 11 kts
2026-05-04 19:57 52.33269 4.70930 -5 ft 80 kts
2026-05-04 19:58 52.34032 4.70999 -3 ft 138 kts
2026-05-04 19:58 52.35113 4.71093 274 ft 161 kts
2026-05-04 19:58 52.36169 4.71188 1171 ft 153 kts
2026-05-04 19:58 52.37269 4.71284 1744 ft 164 kts
2026-05-04 19:59 52.38479 4.71390 2137 ft 186 kts
2026-05-04 19:59 52.39835 4.71509 2494 ft 206 kts
2026-05-04 19:59 52.41347 4.71636 2714 ft 226 kts
2026-05-04 19:59 52.42922 4.71449 3280 ft 233 kts 342°
2026-05-04 20:00 52.44329 4.69955 3565 ft 255 kts 315°
2026-05-04 20:00 52.45576 4.67848 4306 ft 258 kts 314°
2026-05-04 20:00 52.46839 4.65760 5149 ft 259 kts 314°
2026-05-04 20:00 52.48126 4.63650 5855 ft 265 kts 314°
2026-05-04 20:01 52.49431 4.61510 6682 ft 265 kts 314°
2026-05-04 20:01 52.50749 4.59346 7346 ft 270 kts 313°
2026-05-04 20:01 52.52110 4.57224 8132 ft 273 kts 321°
2026-05-04 20:01 52.53742 4.55527 8764 ft 280 kts 328°
2026-05-04 20:02 52.55445 4.54011 9653 ft 277 kts 330°
2026-05-04 20:02 52.57170 4.52486 10200 ft 287 kts 329°
2026-05-04 20:02 52.58987 4.50840 10391 ft 309 kts 329°
2026-05-04 20:02 52.60928 4.49050 10559 ft 330 kts 329°
2026-05-04 20:03 52.62989 4.47132 10724 ft 350 kts 328°
2026-05-04 20:03 52.65164 4.45094 10877 ft 369 kts 329°
2026-05-04 20:03 52.67424 4.42969 11317 ft 376 kts 328°
2026-05-04 20:03 52.69703 4.40820 11936 ft 379 kts 328°
2026-05-04 20:04 52.72000 4.38650 12568 ft 381 kts 328°
2026-05-04 20:04 52.74153 4.36107 13163 ft 383 kts 311°
2026-05-04 20:04 52.75598 4.32529 13926 ft 380 kts 295°
2026-05-04 20:04 52.76589 4.28456 14415 ft 386 kts 289°
2026-05-04 20:05 52.77441 4.24225 15002 ft 389 kts 287°
2026-05-04 20:05 52.78255 4.19953 15596 ft 393 kts 287°
2026-05-04 20:05 52.79077 4.15630 16226 ft 394 kts 287°
2026-05-04 20:05 52.79911 4.11300 16872 ft 396 kts 287°
2026-05-04 20:06 52.80761 4.06947 17457 ft 400 kts 287°
2026-05-04 20:06 52.81628 4.02549 17940 ft 406 kts 287°
2026-05-04 20:06 52.82511 3.98101 18525 ft 407 kts 287°
2026-05-04 20:06 52.83397 3.93647 19081 ft 408 kts 287°
2026-05-04 20:07 52.84286 3.89176 19579 ft 411 kts 287°
2026-05-04 20:07 52.85179 3.84676 20094 ft 413 kts 287°
2026-05-04 20:07 52.86076 3.80148 20598 ft 415 kts 287°
2026-05-04 20:07 52.86974 3.75602 21094 ft 417 kts 287°
2026-05-04 20:08 52.87874 3.71033 21580 ft 419 kts 287°
2026-05-04 20:08 52.88777 3.66437 22039 ft 421 kts 287°
2026-05-04 20:08 52.89682 3.61816 22491 ft 423 kts 286°
2026-05-04 20:08 52.90592 3.57165 22942 ft 425 kts 286°
2026-05-04 20:09 52.91502 3.52502 23389 ft 427 kts 286°
2026-05-04 20:09 52.92417 3.47795 23735 ft 430 kts 286°
2026-05-04 20:09 52.93325 3.43120 24048 ft 433 kts 286°
2026-05-04 20:09 52.94246 3.38362 24378 ft 435 kts 285°
2026-05-04 20:10 52.95172 3.33570 24693 ft 437 kts 285°
2026-05-04 20:10 52.96102 3.28748 25000 ft 440 kts 285°
2026-05-04 20:10 52.97031 3.23915 25431 ft 439 kts 285°
2026-05-04 20:10 52.97958 3.19085 25801 ft 440 kts 285°
2026-05-04 20:11 52.98884 3.14229 26030 ft 444 kts 285°
2026-05-04 20:11 52.99814 3.09331 26268 ft 447 kts 285°
2026-05-04 20:11 53.00748 3.04399 26555 ft 449 kts 285°
2026-05-04 20:11 53.01684 2.99448 26834 ft 451 kts 285°
2026-05-04 20:12 53.02624 2.94462 27109 ft 453 kts 285°
2026-05-04 20:12 53.03562 2.89474 27478 ft 452 kts 285°
2026-05-04 20:12 53.04496 2.84498 27898 ft 451 kts 284°
2026-05-04 20:12 53.05426 2.79529 28294 ft 450 kts 284°
2026-05-04 20:13 53.06353 2.74563 28645 ft 450 kts 284°
2026-05-04 20:13 53.07279 2.69585 29007 ft 450 kts 284°
2026-05-04 20:13 53.08202 2.64611 29383 ft 450 kts 284°
2026-05-04 20:13 53.09122 2.59649 29788 ft 449 kts 284°
2026-05-04 20:14 53.10039 2.54686 30142 ft 449 kts 284°
2026-05-04 20:14 53.10924 2.49703 30417 ft 449 kts 282°
2026-05-04 20:14 53.11493 2.44607 30688 ft 447 kts 276°
2026-05-04 20:14 53.11907 2.39481 31014 ft 446 kts 275°
2026-05-04 20:15 53.12288 2.34366 31330 ft 445 kts 275°
2026-05-04 20:15 53.12666 2.29240 31615 ft 446 kts 275°
2026-05-04 20:15 53.13051 2.24125 31897 ft 446 kts 276°
2026-05-04 20:15 53.13445 2.19005 32194 ft 446 kts 276°
2026-05-04 20:16 53.13847 2.13888 32490 ft 445 kts 276°
2026-05-04 20:16 53.14251 2.08779 32762 ft 445 kts 276°
2026-05-04 20:16 53.14656 2.03666 33047 ft 445 kts 276°
2026-05-04 20:16 53.15062 1.98536 33202 ft 448 kts 276°
2026-05-04 20:17 53.15468 1.93375 33372 ft 450 kts 276°
2026-05-04 20:17 53.15872 1.88206 33696 ft 449 kts 276°
2026-05-04 20:17 53.16272 1.83062 34030 ft 447 kts 276°
2026-05-04 20:17 53.16669 1.77921 34252 ft 447 kts 276°
2026-05-04 20:18 53.17064 1.72770 34446 ft 448 kts 276°
2026-05-04 20:18 53.17457 1.67619 34660 ft 448 kts 276°
2026-05-04 20:18 53.17848 1.62472 34897 ft 448 kts 276°
2026-05-04 20:18 53.18236 1.57321 35111 ft 447 kts 276°
2026-05-04 20:19 53.18622 1.52171 35309 ft 448 kts 276°
2026-05-04 20:19 53.19392 1.41808 35556 ft 452 kts 276°
2026-05-04 20:19 53.19773 1.36619 35811 ft 450 kts 276°
2026-05-04 20:20 53.20025 1.33189 35990 ft 449 kts 276°
2026-05-04 20:20 53.20779 1.22803 36061 ft 453 kts 276°
2026-05-04 20:21 53.21525 1.12405 36051 ft 450 kts 276°
2026-05-04 20:21 53.22618 0.96936 36053 ft 446 kts 276°
2026-05-04 20:22 53.23332 0.86659 36065 ft 445 kts 276°
2026-05-04 20:22 53.24037 0.76385 36063 ft 446 kts 276°
2026-05-04 20:23 53.24736 0.66068 36066 ft 448 kts 276°
2026-05-04 20:23 53.25430 0.55698 36052 ft 451 kts 276°
2026-05-04 20:24 53.26119 0.45253 36054 ft 454 kts 276°
2026-05-04 20:24 53.26803 0.34736 36066 ft 457 kts 276°
2026-05-04 20:25 53.27484 0.24131 36064 ft 461 kts 276°
2026-05-04 20:25 53.28160 0.13461 36056 ft 463 kts 276°
2026-05-04 20:26 53.28838 0.02753 36054 ft 463 kts 277°
2026-05-04 20:26 53.29864 -0.07878 36045 ft 463 kts 281°
2026-05-04 20:27 53.31024 -0.18466 36049 ft 463 kts 280°
2026-05-04 20:27 53.32128 -0.29069 36048 ft 462 kts 280°
2026-05-04 20:28 53.33198 -0.39668 36049 ft 462 kts 280°
2026-05-04 20:28 53.34264 -0.50251 36049 ft 461 kts 280°
2026-05-04 20:29 53.35325 -0.60819 36047 ft 460 kts 280°
2026-05-04 20:29 53.36369 -0.71387 36048 ft 460 kts 279°
2026-05-04 20:30 53.37390 -0.81960 36049 ft 460 kts 279°
2026-05-04 20:30 53.38403 -0.92523 36046 ft 459 kts 279°
2026-05-04 20:31 53.39436 -1.03002 36040 ft 459 kts 280°
2026-05-04 20:31 53.40467 -1.13627 36044 ft 459 kts 279°
2026-05-04 20:32 53.41454 -1.24115 36045 ft 459 kts 279°
2026-05-04 20:32 53.42423 -1.34687 36045 ft 459 kts 279°
2026-05-04 20:33 53.43418 -1.45264 36048 ft 459 kts 279°
2026-05-04 20:33 53.44400 -1.55857 36037 ft 460 kts 279°
2026-05-04 20:34 53.45365 -1.66459 36051 ft 460 kts 279°
2026-05-04 20:34 53.46323 -1.77084 36046 ft 461 kts 279°
2026-05-04 20:35 53.47264 -1.87685 36052 ft 461 kts 279°
2026-05-04 20:35 53.48187 -1.98342 36051 ft 461 kts 279°
2026-05-04 20:36 53.49103 -2.09011 36047 ft 462 kts 279°
2026-05-04 20:36 53.50005 -2.19599 36053 ft 462 kts 279°
2026-05-04 20:37 53.50909 -2.30277 36058 ft 462 kts 279°
2026-05-04 20:37 53.51806 -2.40964 36054 ft 462 kts 279°
2026-05-04 20:38 53.52694 -2.51650 36061 ft 462 kts 278°
2026-05-04 20:38 53.53572 -2.62339 36060 ft 462 kts 278°
2026-05-04 20:39 53.54439 -2.73030 36063 ft 462 kts 278°
2026-05-04 20:39 53.55298 -2.83733 36064 ft 462 kts 278°
2026-05-04 20:40 53.56148 -2.94441 36065 ft 462 kts 278°
2026-05-04 20:40 53.56987 -3.05151 36070 ft 462 kts 278°
2026-05-04 20:41 53.57817 -3.15865 36066 ft 462 kts 278°
2026-05-04 20:41 53.58637 -3.26575 36078 ft 462 kts 278°
2026-05-04 20:42 53.59449 -3.37305 35988 ft 463 kts 278°
2026-05-04 20:42 53.59856 -3.42731 35399 ft 469 kts 278°
2026-05-04 20:42 53.60260 -3.48157 34761 ft 467 kts 278°
2026-05-04 20:43 53.60662 -3.53582 34120 ft 467 kts 278°
2026-05-04 20:43 53.61062 -3.59014 33347 ft 468 kts 278°
2026-05-04 20:43 53.61489 -3.64446 32588 ft 467 kts 282°
2026-05-04 20:43 53.62276 -3.69726 31846 ft 465 kts 292°
2026-05-04 20:44 53.63478 -3.74778 31098 ft 464 kts 295°
2026-05-04 20:44 53.64743 -3.79792 30327 ft 465 kts 295°
2026-05-04 20:44 53.65998 -3.84826 29425 ft 467 kts 294°
2026-05-04 20:44 53.67225 -3.89903 28539 ft 467 kts 294°
2026-05-04 20:45 53.68433 -3.94991 27651 ft 467 kts 293°
2026-05-04 20:45 53.69645 -4.00062 26874 ft 464 kts 293°
2026-05-04 20:45 53.70850 -4.05095 25966 ft 463 kts 291°
2026-05-04 20:45 53.71731 -4.10324 25322 ft 466 kts 282°
2026-05-04 20:46 53.72109 -4.15778 24647 ft 468 kts 274°
2026-05-04 20:46 53.72262 -4.21238 23971 ft 463 kts 273°
2026-05-04 20:46 53.72402 -4.26624 23209 ft 458 kts 274°
2026-05-04 20:46 53.72560 -4.31899 22485 ft 453 kts 274°
2026-05-04 20:47 53.72740 -4.37164 21818 ft 446 kts 274°
2026-05-04 20:47 53.72925 -4.42366 21147 ft 441 kts 274°
2026-05-04 20:47 53.73107 -4.47498 20491 ft 435 kts 274°
2026-05-04 20:47 53.73284 -4.52569 19847 ft 430 kts 274°
2026-05-04 20:48 53.73455 -4.57587 19211 ft 426 kts 273°
2026-05-04 20:48 53.73623 -4.62555 18580 ft 422 kts 273°
2026-05-04 20:48 53.73788 -4.67473 17888 ft 418 kts 273°
2026-05-04 20:48 53.73949 -4.72348 17196 ft 413 kts 273°
2026-05-04 20:49 53.74107 -4.77160 16574 ft 408 kts 273°
2026-05-04 20:49 53.74260 -4.81917 15958 ft 403 kts 273°
2026-05-04 20:49 53.74412 -4.86613 15379 ft 398 kts 273°
2026-05-04 20:49 53.74566 -4.91253 14777 ft 394 kts 273°
2026-05-04 20:50 53.74719 -4.95871 14176 ft 392 kts 273°
2026-05-04 20:50 53.74870 -5.00446 13525 ft 388 kts 273°
2026-05-04 20:50 53.75016 -5.04984 12878 ft 384 kts 273°
2026-05-04 20:50 53.75157 -5.09458 12288 ft 379 kts 272°
2026-05-04 20:51 53.75071 -5.13874 11675 ft 375 kts 263°
2026-05-04 20:51 53.74528 -5.18160 11144 ft 372 kts 252°
2026-05-04 20:51 53.73684 -5.22202 11036 ft 360 kts 251°
2026-05-04 20:51 53.72868 -5.26121 10860 ft 347 kts 252°
2026-05-04 20:52 53.72092 -5.29894 10716 ft 334 kts 252°
2026-05-04 20:52 53.71348 -5.33546 10569 ft 323 kts 252°
2026-05-04 20:52 53.70634 -5.37064 10445 ft 312 kts 252°
2026-05-04 20:52 53.69941 -5.40472 10317 ft 302 kts 252°
2026-05-04 20:53 53.69270 -5.43767 10191 ft 293 kts 252°
2026-05-04 20:53 53.68617 -5.46968 10046 ft 285 kts 252°
2026-05-04 20:53 53.68037 -5.50146 9713 ft 282 kts 262°
2026-05-04 20:53 53.68035 -5.53414 9458 ft 276 kts 275°
2026-05-04 20:54 53.68153 -5.56636 9137 ft 275 kts 274°
2026-05-04 20:54 53.68251 -5.59851 8838 ft 273 kts 274°
2026-05-04 20:54 53.68339 -5.63030 8629 ft 268 kts 272°
2026-05-04 20:54 53.68051 -5.66067 8484 ft 263 kts 247°
2026-05-04 20:55 53.67102 -5.68638 8389 ft 257 kts 233°
2026-05-04 20:55 53.65942 -5.70908 8289 ft 254 kts 230°
2026-05-04 20:55 53.64548 -5.72718 8136 ft 257 kts 203°
2026-05-04 20:55 53.62809 -5.73128 8099 ft 253 kts 174°
2026-05-04 20:56 53.61178 -5.72134 8106 ft 250 kts 147°
2026-05-04 20:56 53.59930 -5.70114 8109 ft 251 kts 128°
2026-05-04 20:56 53.58883 -5.67772 8108 ft 256 kts 126°
2026-05-04 20:56 53.57816 -5.65300 8104 ft 258 kts 126°
2026-05-04 20:57 53.56666 -5.63071 8080 ft 255 kts 145°
2026-05-04 20:57 53.55158 -5.61554 8107 ft 252 kts 151°
2026-05-04 20:57 53.53644 -5.60062 8103 ft 252 kts 150°
2026-05-04 20:57 53.52144 -5.58549 8103 ft 252 kts 150°
2026-05-04 20:58 53.50646 -5.57025 8104 ft 252 kts 150°
2026-05-04 20:58 53.49133 -5.55536 8095 ft 252 kts 157°
2026-05-04 20:58 53.47447 -5.54848 8118 ft 249 kts 174°
2026-05-04 20:58 53.45723 -5.54443 8105 ft 251 kts 173°
2026-05-04 20:59 53.43992 -5.53989 8110 ft 253 kts 173°
2026-05-04 20:59 53.42250 -5.53518 8108 ft 254 kts 172°
2026-05-04 20:59 53.40501 -5.53041 8109 ft 255 kts 173°
2026-05-04 20:59 53.38747 -5.53012 8093 ft 252 kts 194°
2026-05-04 21:00 53.37051 -5.53719 8107 ft 251 kts 196°
2026-05-04 21:00 53.35348 -5.54397 8113 ft 252 kts 195°
2026-05-04 21:00 53.33639 -5.55053 8095 ft 252 kts 195°
2026-05-04 21:00 53.31931 -5.55698 8093 ft 252 kts 195°
2026-05-04 21:01 53.30240 -5.56426 8091 ft 250 kts 205°
2026-05-04 21:01 53.28782 -5.57932 8110 ft 245 kts 218°
2026-05-04 21:01 53.27377 -5.59567 8098 ft 246 kts 217°
2026-05-04 21:01 53.25972 -5.61186 8091 ft 245 kts 220°
2026-05-04 21:02 53.24944 -5.63374 8106 ft 238 kts 252°
2026-05-04 21:02 53.24757 -5.66078 7959 ft 239 kts 280°
2026-05-04 21:02 53.25379 -5.68672 7659 ft 244 kts 306°
2026-05-04 21:02 53.26489 -5.70811 7359 ft 244 kts 314°
2026-05-04 21:03 53.27672 -5.72793 7232 ft 234 kts 314°
2026-05-04 21:03 53.28788 -5.74657 7128 ft 221 kts 314°
2026-05-04 21:03 53.29836 -5.76432 7022 ft 208 kts 314°
2026-05-04 21:03 53.30817 -5.78111 6907 ft 195 kts 313°
2026-05-04 21:04 53.31750 -5.79717 6605 ft 191 kts 313°
2026-05-04 21:04 53.32672 -5.81309 6224 ft 190 kts 313°
2026-05-04 21:04 53.33588 -5.82893 5838 ft 189 kts 313°
2026-05-04 21:04 53.34499 -5.84468 5467 ft 188 kts 313°
2026-05-04 21:05 53.35398 -5.86025 5197 ft 181 kts 313°
2026-05-04 21:05 53.36243 -5.87490 4990 ft 172 kts 313°
2026-05-04 21:05 53.37060 -5.88909 4656 ft 171 kts 314°
2026-05-04 21:05 53.37883 -5.90340 4319 ft 170 kts 314°
2026-05-04 21:06 53.38691 -5.91745 4078 ft 166 kts 315°
2026-05-04 21:06 53.39492 -5.93139 3882 ft 167 kts 315°
2026-05-04 21:06 53.40190 -5.94700 3629 ft 173 kts 289°
2026-05-04 21:06 53.40380 -5.96671 3606 ft 172 kts 283°
2026-05-04 21:07 53.40585 -5.98645 3376 ft 168 kts 282°
2026-05-04 21:07 53.40724 -6.00538 3135 ft 159 kts 279°
2026-05-04 21:07 53.40827 -6.02333 2956 ft 150 kts 279°
2026-05-04 21:07 53.40922 -6.04085 2744 ft 153 kts 279°
2026-05-04 21:08 53.40986 -6.05289 2598 ft 154 kts 279°
2026-05-04 21:08 53.41079 -6.07080 2391 ft 154 kts 278°
2026-05-04 21:08 53.41171 -6.08850 2177 ft 154 kts 278°
2026-05-04 21:08 53.41264 -6.10636 1965 ft 154 kts 278°
2026-05-04 21:09 53.41359 -6.12433 1755 ft 154 kts 278°
2026-05-04 21:09 53.41453 -6.14225 1526 ft 155 kts 278°
2026-05-04 21:09 53.41546 -6.16022 1339 ft 155 kts 278°
2026-05-04 21:09 53.41644 -6.17829 1113 ft 157 kts 278°
2026-05-04 21:10 53.41740 -6.19639 909 ft 156 kts 275°
2026-05-04 21:10 53.41837 -6.21448 681 ft 155 kts 274°
2026-05-04 21:10 53.41931 -6.23227 463 ft 151 kts 273°
2026-05-04 21:10 53.42025 -6.24975 260 ft 150 kts 273°
2026-05-04 21:11 53.42111 -6.26616 210 ft 122 kts 276°
2026-05-04 21:11 53.42170 -6.27674 208 ft 62 kts 275°
2026-05-04 21:11 53.42190 -6.28031 211 ft 1 kts 282°
2026-05-04 21:11 53.42196 -6.28066 215 ft 9 kts 286°
2026-05-04 21:12 53.42241 -6.28219 215 ft 20 kts 301°
2026-05-04 21:12 53.42354 -6.28303 217 ft 11 kts 31°
2026-05-04 21:12 53.42369 -6.28170 210 ft 16 kts 96°
2026-05-04 21:12 53.42357 -6.27958 210 ft 21 kts 95°
2026-05-04 21:13 53.42343 -6.27689 210 ft 26 kts 95°
2026-05-04 21:13 53.42326 -6.27405 210 ft 20 kts 95°
2026-05-04 21:13 53.42316 -6.27205 210 ft 19 kts 96°
2026-05-04 21:13 53.42305 -6.26979 215 ft 22 kts 97°
2026-05-04 21:14 53.42288 -6.26689 210 ft 27 kts 95°
2026-05-04 21:14 53.42270 -6.26357 212 ft 31 kts 95°
2026-05-04 21:14 53.42259 -6.26045 210 ft 24 kts 81°
2026-05-04 21:14 53.42363 -6.25796 212 ft 29 kts 46°
2026-05-04 21:15 53.42511 -6.25543 215 ft 33 kts 45°
2026-05-04 21:15 53.42674 -6.25266 210 ft 32 kts 45°
2026-05-04 21:15 53.42799 -6.25059 217 ft 16 kts 33°
2026-05-04 21:15 53.42855 -6.24980 215 ft 9 kts 64°
2026-05-04 21:16 53.42861 -6.24965 215 ft 4 kts 51°
2026-05-04 21:16 53.42851 -6.24886 213 ft 10 kts 140°
2026-05-04 21:16 53.42835 -6.24860 210 ft 0 kts 134°